Regional Weather Roundup
Issued by NWS

Home | Current Version | Previous Version | Graphics & Text | Print | Product List | Glossary On
Versions: 1 2 3 4 5 6 7 8 9 10 11 12 13 14 15 16 17 18 19 20 21 22 23 24 25 26 27 28 29 30 31 32 33 34 35 36 37 38 39 40 41 42 43 44 45 46 47 48 49 50
000
ASUS45 KABQ 060501
RWRNM
WEATHER ROUNDUP FOR NEW MEXICO
NATIONAL WEATHER SERVICE ALBUQUERQUE NM
1100 PM MDT TUE MAY 05 2015

NOTE: "FAIR" MEANS FEW OR NO CLOUDS BELOW 12,000 FEET AGL WITH NO
       SIGNIFICANT WEATHER OR OBSTRUCTIONS TO VISION.

      THIS PRODUCT IS RELEASED AS TWO VERSIONS.  ONE VERSION NEAR
      THE TOP OF THE HOUR CONTAINING PRELIMINARY DATA FROM ALBUQUERQUE
      AND OTHER STATIONS.  A FINAL VERSION WITH ADDITIONAL DATA IS
      ISSUED ABOUT 10 MINUTES AFTER THE HOUR.

NMZ501-503-504-510>518-060600-
NORTHWEST PLATEAU/NORTHCENTRAL MOUNTAINS

CITY           SKY/WX    TMP DP  RH WIND       PRES   REMARKS
FARMINGTON     CLOUDY    53  44  71 CALM      29.89S
SANTA FE       MOCLDY    47  43  86 W3        29.96S
TAOS           CLOUDY    45  36  70 SW9       29.97S

$$
NMZ402-403-502-505>509-060600-
WESTCENTRAL MOUNTAINS/SOUTHWEST MOUNTAINS

CITY           SKY/WX    TMP DP  RH WIND       PRES   REMARKS
GALLUP         LGT RAIN  47  43  86 W8        30.02R FOG
GRANTS         CLOUDY    47  43  87 CALM      30.03R
SILVER CITY      N/A     54  37  54 NW10      30.04S

$$
NMZ407-409-411-412-060600-
SOUTHERN DESERTS

CITY           SKY/WX    TMP DP  RH WIND       PRES   REMARKS
DEMING         CLEAR     61  39  44 NW7       29.98R
HOLLOMAN AFB   PTCLDY    65  39  38 SW8       29.93R
ALAMOGORDO     PTCLDY    63  34  34 W7        29.95S
T OR C         CLEAR     61  36  39 W7        29.96R

$$
NMZ519>523-060600-
CENTRAL VALLEYS/CENTRAL HIGHLANDS

CITY           SKY/WX    TMP DP  RH WIND       PRES   REMARKS
ALBUQUERQUE    MOCLDY    55  46  71 S7        29.97R
DOUBLE EAGLE   CLOUDY    51  44  77 SW12      29.97S
MORIARTY ARPT  FAIR      46  41  82 W6        29.99S
CLINES CORNERS PTCLDY    45  39  79 W18       29.96R
BELEN          FAIR      50  47  87 S6        29.97S
SOCORRO        NOT AVBL

$$
NMZ524>526-539-540-060600-
SOUTHCENTRAL MOUNTAINS

CITY           SKY/WX    TMP DP  RH WIND       PRES   REMARKS
RUIDOSO        NOT AVBL

$$
NMZ527>531-060600-
NORTHEAST HIGHLANDS/NORTHEAST PLAINS

CITY           SKY/WX    TMP DP  RH WIND       PRES   REMARKS
LAS VEGAS      MOCLDY    47  38  71 SW12      29.91F
RATON          PTCLDY    47  42  83 CALM      29.84S
CLAYTON        PTCLDY    48  46  93 S12       29.80F

$$
NMZ532>537-060600-
EASTCENTRAL PLAINS

CITY           SKY/WX    TMP DP  RH WIND       PRES   REMARKS
TUCUMCARI      CLEAR     56  47  71 SW12      29.83S
CANNON AFB     NOT AVBL
CLOVIS AIRPORT MOCLDY    54  48  82 S7        29.90R

$$
NMZ028-029-538-060600-
SOUTHEAST PLAINS

CITY           SKY/WX    TMP DP  RH WIND       PRES   REMARKS
ROSWELL        CLEAR     61  44  53 W8        29.88R
ARTESIA        CLEAR     63  43  48 SW12      29.89R
CARLSBAD       CLEAR     60  47  61 W12       29.87R
HOBBS          CLEAR     57  46  67 SW6       29.90S


$$



USA.gov is the U.S. government's official web portal to all federal, state and local government web resources and services.